Kezdőlap
METAR-TAF:

METAR-TAF

Repülőterek :

Jacksonville Municipal Airport

Jacksonville, Illinois, Amerikai Egyesült Államok

földrajzi szélesség: 39-46-27N, földrajzi hosszúság: 090-14-19W, magasság: 190 m

Jelenlegi meteorológiai megfigyelések

A jelentés 26 perccel ezelõtt készült, 13:35 UTC
Szélcsend
Hőmérséklet 24°C
Páratartalom 100%
Légköri nyomás 1019 hPa

METAR: KIJX 281335Z AUTO 00000KT 24/24 A3008 RMK AO2 T02370236

Idő: 09:01 (14:01 UTC)


TAF: hiányzik

Meteorológiai megfigyelések és előrejelzések több, mint 4000 repülőtéren (METAR és TAF jelentéseket).

A térképen piros és sárga pontok jelzik az elérhető meteorológiai állomásokat.

Mozgassa az egeret a pont fölött, hogy megjelenjen az állomás neve.

Azután kattintson az időjárási megfigyelések és előrejelzések megtekintéséhez.

A térkép megváltoztatása: kattintson a fekete keresztel jelölt zöld gombra ráközelítéshez, a vonallal jelölt zöld gombra távolításhoz, vagy a zöld nyilakra a szomszédos térképek eléréséhez.


METAR-TAF: